BAW114 KJFK-EGLL

Flight info

Callsign BAW114
Flight time 6h 15m
Altitude 37000
Route MERIT DCT HFD DCT PUT DCT BOS DCT TUSKY N269B NICSO/M085F380 DCT 48N050W 50N040W 52N030W 54N020W DCT DOGAL DCT BEXET/N0483F390 DCT ENJEX DCT AVZAC DCT INFEC DCT JETZI DCT AMFUL DCT ORZEB/N0463F230 P2 SIRIC
Aircraft A35K/H-SDE2E3GHIJ3J4J5LM1ORWXY/LB1D1

Departure

Time 2026-05-04 15:20
Airport John F. Kennedy International Airport (KJFK)

Arrival

Time 2026-05-04 21:36
Airport London Heathrow Airport (EGLL)
Time Latitude Longitude Altitude Speed Heading
2026-05-04 14:27 40.64268 -73.77947 26 ft 0 kts 11°
2026-05-04 15:04 40.64244 -73.77956 32 ft 4 kts 24°
2026-05-04 15:04 40.64220 -73.77973 32 ft 4 kts 41°
2026-05-04 15:04 40.64202 -73.77999 32 ft 4 kts 57°
2026-05-04 15:04 40.64190 -73.78030 32 ft 4 kts 72°
2026-05-04 15:05 40.64185 -73.78053 32 ft 0 kts 78°
2026-05-04 15:08 40.64186 -73.78048 29 ft 2 kts 77°
2026-05-04 15:09 40.64191 -73.78018 26 ft 5 kts 77°
2026-05-04 15:09 40.64184 -73.77969 32 ft 6 kts 121°
2026-05-04 15:09 40.64147 -73.77928 30 ft 8 kts 143°
2026-05-04 15:10 40.64085 -73.77867 31 ft 3 kts 108°
2026-05-04 15:10 40.64093 -73.77845 32 ft 4 kts 66°
2026-05-04 15:10 40.64133 -73.77743 26 ft 9 kts 61°
2026-05-04 15:11 40.64166 -73.77667 26 ft 7 kts 60°
2026-05-04 15:11 40.64186 -73.77622 26 ft 5 kts 60°
2026-05-04 15:11 40.64191 -73.77576 26 ft 6 kts 112°
2026-05-04 15:11 40.64155 -73.77537 26 ft 0 kts 144°
2026-05-04 15:12 40.64147 -73.77529 31 ft 3 kts 144°
2026-05-04 15:12 40.64124 -73.77507 29 ft 4 kts 141°
2026-05-04 15:12 40.64116 -73.77497 29 ft 3 kts 140°
2026-05-04 15:12 40.64113 -73.77493 29 ft 0 kts 139°
2026-05-04 15:13 40.64110 -73.77490 29 ft 2 kts 139°
2026-05-04 15:14 40.64089 -73.77460 32 ft 7 kts 128°
2026-05-04 15:14 40.64073 -73.77399 31 ft 7 kts 72°
2026-05-04 15:14 40.64119 -73.77351 26 ft 10 kts 33°
2026-05-04 15:14 40.64190 -73.77292 26 ft 13 kts 30°
2026-05-04 15:15 40.64279 -73.77225 26 ft 16 kts 30°
2026-05-04 15:15 40.64370 -73.77153 32 ft 13 kts 31°
2026-05-04 15:15 40.64460 -73.77095 32 ft 15 kts 12°
2026-05-04 15:16 40.64659 -73.77099 29 ft 14 kts 342°
2026-05-04 15:16 40.64710 -73.77159 31 ft 7 kts 305°
2026-05-04 15:16 40.64776 -73.77154 26 ft 6 kts 49°
2026-05-04 15:17 40.64781 -73.77145 26 ft 0 kts 50°
2026-05-04 15:17 40.64805 -73.77107 27 ft 6 kts 51°
2026-05-04 15:17 40.64843 -73.77043 27 ft 12 kts 54°
2026-05-04 15:18 40.64898 -73.76939 27 ft 12 kts 54°
2026-05-04 15:18 40.64913 -73.76844 27 ft 12 kts 115°
2026-05-04 15:18 40.64877 -73.76758 27 ft 7 kts 120°
2026-05-04 15:19 40.64812 -73.76613 27 ft 8 kts 121°
2026-05-04 15:19 40.64786 -73.76566 27 ft 7 kts 141°
2026-05-04 15:19 40.64632 -73.76661 30 ft 45 kts 211°
2026-05-04 15:20 40.64168 -73.77024 27 ft 110 kts 211°
2026-05-04 15:20 40.63345 -73.77665 94 ft 158 kts 211°
2026-05-04 15:20 40.62379 -73.78397 744 ft 162 kts 211°
2026-05-04 15:20 40.61408 -73.79222 1414 ft 169 kts 214°
2026-05-04 15:21 40.60373 -73.80135 1830 ft 188 kts 215°
2026-05-04 15:21 40.59232 -73.81121 2333 ft 203 kts 215°
2026-05-04 15:21 40.56695 -73.83277 3585 ft 228 kts 215°
2026-05-04 15:22 40.55349 -73.84392 4251 ft 235 kts 215°
2026-05-04 15:22 40.53921 -73.85506 4879 ft 240 kts 214°
2026-05-04 15:22 40.50961 -73.87708 6413 ft 249 kts 206°
2026-05-04 15:23 40.49253 -73.88253 7188 ft 260 kts 189°
2026-05-04 15:23 40.48131 -73.88167 7627 ft 270 kts 174°
2026-05-04 15:23 40.46787 -73.87474 8189 ft 284 kts 152°
2026-05-04 15:23 40.45422 -73.85526 8966 ft 300 kts 119°
2026-05-04 15:24 40.45547 -73.80153 10404 ft 315 kts 57°
2026-05-04 15:24 40.49020 -73.76366 11109 ft 344 kts 23°
2026-05-04 15:25 40.51246 -73.75008 11460 ft 361 kts 20°
2026-05-04 15:25 40.53613 -73.73669 11845 ft 377 kts 20°
2026-05-04 15:25 40.56032 -73.72242 12480 ft 385 kts 21°
2026-05-04 15:26 40.60881 -73.69086 13938 ft 396 kts 24°
2026-05-04 15:26 40.63334 -73.67380 14608 ft 400 kts 24°
2026-05-04 15:26 40.68304 -73.63847 15906 ft 409 kts 24°
2026-05-04 15:27 40.70822 -73.62048 16584 ft 413 kts 24°
2026-05-04 15:27 40.75882 -73.58444 17960 ft 420 kts 23°
2026-05-04 15:28 40.81066 -73.54761 19285 ft 426 kts 23°
2026-05-04 15:28 40.83682 -73.52901 19966 ft 428 kts 23°
2026-05-04 15:28 40.88962 -73.49144 21291 ft 434 kts 24°
2026-05-04 15:29 40.91626 -73.47245 21951 ft 437 kts 24°
2026-05-04 15:30 41.02457 -73.39507 24365 ft 450 kts 24°
2026-05-04 15:30 41.10808 -73.33520 25941 ft 459 kts 24°
2026-05-04 15:31 41.16461 -73.29457 26955 ft 465 kts 24°
2026-05-04 15:31 41.19330 -73.27394 27347 ft 471 kts 24°
2026-05-04 15:32 41.27987 -73.21148 28860 ft 477 kts 24°
2026-05-04 15:32 41.33840 -73.16833 29519 ft 485 kts 27°
2026-05-04 15:33 41.39044 -73.10941 30304 ft 498 kts 45°
2026-05-04 15:34 41.44850 -72.99348 31316 ft 508 kts 56°
2026-05-04 15:34 41.46593 -72.95224 31653 ft 509 kts 57°
2026-05-04 15:34 41.50102 -72.86932 31997 ft 516 kts 57°
2026-05-04 15:35 41.53683 -72.78642 32714 ft 515 kts 57°
2026-05-04 15:35 41.55490 -72.74502 33038 ft 516 kts 57°
2026-05-04 15:35 41.57301 -72.70364 33347 ft 516 kts 57°
2026-05-04 15:36 41.60906 -72.62120 33968 ft 517 kts 57°
2026-05-04 15:36 41.62720 -72.57964 34194 ft 518 kts 57°
2026-05-04 15:36 41.64544 -72.53779 34352 ft 520 kts 57°
2026-05-04 15:37 41.66391 -72.49612 34600 ft 520 kts 56°
2026-05-04 15:37 41.68262 -72.45463 34888 ft 520 kts 56°
2026-05-04 15:37 41.70118 -72.41375 35128 ft 520 kts 56°
2026-05-04 15:37 41.71997 -72.37233 35356 ft 520 kts 56°
2026-05-04 15:38 41.73874 -72.33082 35574 ft 521 kts 56°
2026-05-04 15:38 41.75750 -72.28916 35778 ft 522 kts 56°
2026-05-04 15:38 41.77621 -72.24750 36013 ft 522 kts 57°
2026-05-04 15:38 41.79498 -72.20557 36125 ft 525 kts 57°
2026-05-04 15:39 41.81378 -72.16349 36316 ft 526 kts 57°
2026-05-04 15:39 41.83232 -72.12193 36590 ft 526 kts 57°
2026-05-04 15:39 41.86981 -72.03769 37024 ft 526 kts 57°
2026-05-04 15:40 41.88855 -71.99550 37203 ft 527 kts 57°
2026-05-04 15:40 41.90732 -71.95318 37400 ft 527 kts 57°
2026-05-04 15:40 41.92610 -71.91080 37566 ft 528 kts 57°
2026-05-04 15:41 41.96382 -71.82562 37794 ft 531 kts 57°
2026-05-04 15:41 41.98310 -71.78388 38015 ft 530 kts 55°
2026-05-04 15:41 42.00306 -71.74212 38228 ft 530 kts 55°
2026-05-04 15:41 42.02319 -71.70047 38374 ft 530 kts 55°
2026-05-04 15:42 42.04332 -71.65877 38528 ft 531 kts 55°
2026-05-04 15:42 42.06338 -71.61697 38650 ft 531 kts 55°
2026-05-04 15:42 42.08330 -71.57518 38768 ft 531 kts 55°
2026-05-04 15:43 42.12291 -71.49151 38921 ft 534 kts 56°
2026-05-04 15:43 42.16287 -71.40663 38923 ft 539 kts 56°
2026-05-04 15:44 42.20303 -71.32103 38902 ft 538 kts 56°
2026-05-04 15:44 42.23625 -71.25008 38895 ft 538 kts 56°
2026-05-04 15:45 42.28269 -71.15062 38912 ft 537 kts 56°
2026-05-04 15:45 42.31580 -71.07953 38884 ft 536 kts 56°
2026-05-04 15:46 42.35470 -70.99343 38889 ft 537 kts 62°
2026-05-04 15:46 42.38645 -70.90170 38886 ft 538 kts 65°
2026-05-04 15:47 42.41649 -70.80942 38890 ft 539 kts 65°
2026-05-04 15:47 42.44641 -70.71625 38882 ft 538 kts 65°
2026-05-04 15:48 42.47626 -70.62330 38883 ft 538 kts 65°
2026-05-04 15:48 42.52092 -70.48410 38882 ft 539 kts 66°
2026-05-04 15:49 42.55083 -70.39055 38885 ft 540 kts 66°
2026-05-04 15:49 42.58064 -70.29697 38886 ft 540 kts 66°
2026-05-04 15:50 42.61016 -70.20395 38889 ft 539 kts 66°
2026-05-04 15:50 42.63985 -70.11008 38890 ft 541 kts 66°
2026-05-04 15:51 42.66949 -70.01604 38893 ft 541 kts 66°
2026-05-04 15:51 42.69910 -69.92176 38892 ft 541 kts 66°
2026-05-04 15:52 42.72837 -69.82821 38882 ft 542 kts 66°
2026-05-04 15:52 42.75790 -69.73350 38892 ft 543 kts 66°
2026-05-04 15:53 42.78738 -69.63862 38891 ft 543 kts 66°
2026-05-04 15:53 42.81671 -69.54385 38887 ft 543 kts 66°
2026-05-04 15:54 42.84581 -69.44952 38884 ft 544 kts 66°
2026-05-04 15:54 42.87510 -69.35422 38887 ft 545 kts 67°
2026-05-04 15:55 42.90433 -69.25876 38889 ft 545 kts 67°
2026-05-04 15:55 42.93350 -69.16312 38881 ft 545 kts 67°
2026-05-04 15:56 42.96246 -69.06786 38890 ft 547 kts 67°
2026-05-04 15:56 42.99162 -68.97157 38895 ft 547 kts 67°
2026-05-04 15:57 43.02066 -68.87532 38895 ft 547 kts 67°
2026-05-04 15:57 43.04955 -68.77921 38891 ft 546 kts 67°
2026-05-04 15:58 43.07821 -68.68351 38887 ft 547 kts 67°
2026-05-04 15:58 43.10696 -68.58716 38884 ft 547 kts 67°
2026-05-04 15:59 43.13566 -68.49061 38893 ft 547 kts 68°
2026-05-04 15:59 43.16424 -68.39411 38886 ft 545 kts 68°
2026-05-04 16:00 43.19252 -68.29823 38886 ft 546 kts 68°
2026-05-04 16:00 43.22096 -68.20148 38889 ft 547 kts 68°
2026-05-04 16:01 43.24935 -68.10451 38898 ft 548 kts 68°
2026-05-04 16:01 43.27765 -68.00749 38889 ft 548 kts 68°
2026-05-04 16:02 43.30573 -67.91082 38886 ft 548 kts 68°
2026-05-04 16:03 43.34785 -67.76516 38882 ft 549 kts 68°
2026-05-04 16:03 43.37594 -67.66757 38885 ft 549 kts 68°
2026-05-04 16:04 43.40398 -67.56973 38881 ft 549 kts 68°
2026-05-04 16:04 43.44591 -67.42274 38881 ft 549 kts 68°
2026-05-04 16:05 43.47355 -67.32539 38887 ft 549 kts 69°
2026-05-04 16:06 43.51515 -67.17812 38880 ft 549 kts 69°
2026-05-04 16:07 43.57237 -66.98321 38880 ft 549 kts 62°
2026-05-04 16:08 43.64326 -66.79687 38871 ft 549 kts 61°
2026-05-04 16:09 43.73287 -66.56370 38873 ft 550 kts 61°
2026-05-04 16:10 43.80385 -66.37693 38871 ft 549 kts 61°
2026-05-04 16:11 43.87477 -66.18910 38880 ft 548 kts 62°
2026-05-04 16:12 43.97991 -65.90832 38871 ft 548 kts 62°
2026-05-04 16:13 44.04980 -65.72009 38854 ft 547 kts 62°
2026-05-04 16:14 44.11919 -65.53195 38829 ft 547 kts 62°
2026-05-04 16:16 44.20568 -65.29563 38832 ft 549 kts 62°
2026-05-04 16:17 44.29158 -65.05887 38820 ft 547 kts 62°
2026-05-04 16:18 44.35992 -64.86906 38812 ft 546 kts 63°
2026-05-04 16:19 44.44452 -64.63222 38785 ft 545 kts 63°
2026-05-04 16:20 44.52865 -64.39467 38762 ft 545 kts 63°
2026-05-04 16:22 44.61261 -64.15552 38757 ft 546 kts 63°
2026-05-04 16:23 44.70875 -63.86623 38742 ft 546 kts 68°
2026-05-04 16:25 44.79541 -63.57147 38721 ft 544 kts 67°
2026-05-04 16:26 44.89726 -63.22731 38722 ft 545 kts 68°
2026-05-04 16:28 44.96973 -62.97935 38705 ft 547 kts 68°
2026-05-04 16:29 45.07032 -62.63102 38691 ft 546 kts 68°
2026-05-04 16:31 45.14135 -62.38203 38681 ft 547 kts 68°
2026-05-04 16:32 45.22498 -62.08565 38656 ft 547 kts 68°
2026-05-04 16:33 45.28093 -61.88536 38644 ft 547 kts 68°
2026-05-04 16:34 45.32281 -61.73428 38634 ft 548 kts 68°
2026-05-04 16:35 45.40597 -61.43157 38618 ft 547 kts 69°
2026-05-04 16:36 45.44698 -61.28086 38597 ft 546 kts 69°
2026-05-04 16:37 45.48801 -61.12913 38583 ft 546 kts 69°
2026-05-04 16:38 45.54218 -60.92731 38578 ft 545 kts 69°
2026-05-04 16:39 45.60352 -60.69782 38566 ft 545 kts 69°
2026-05-04 16:40 45.65670 -60.49510 38561 ft 546 kts 70°
2026-05-04 16:41 45.72316 -60.24025 38554 ft 546 kts 70°
2026-05-04 16:43 45.78886 -59.98580 38538 ft 545 kts 70°
2026-05-04 16:43 45.82703 -59.83662 38551 ft 545 kts 70°
2026-05-04 16:45 45.90395 -59.53308 38549 ft 540 kts 70°
2026-05-04 16:46 45.96741 -59.27964 38542 ft 539 kts 71°
2026-05-04 16:47 46.01775 -59.07649 38543 ft 540 kts 71°
2026-05-04 16:48 46.06780 -58.87276 38546 ft 541 kts 71°
2026-05-04 16:49 46.11763 -58.66802 38512 ft 541 kts 71°
2026-05-04 16:50 46.16715 -58.46271 38518 ft 544 kts 72°
2026-05-04 16:51 46.20429 -58.30746 38508 ft 545 kts 72°
2026-05-04 16:52 46.25331 -58.10092 38503 ft 545 kts 72°
2026-05-04 16:53 46.29001 -57.94490 38489 ft 545 kts 73°
2026-05-04 16:54 46.33849 -57.73717 38485 ft 546 kts 73°
2026-05-04 16:55 46.41060 -57.42451 38487 ft 545 kts 73°
2026-05-04 16:56 46.47008 -57.16310 38485 ft 545 kts 74°
2026-05-04 16:57 46.50532 -57.00671 38473 ft 546 kts 74°
2026-05-04 16:58 46.55223 -56.79675 38468 ft 545 kts 75°
2026-05-04 17:00 46.62150 -56.48263 38453 ft 544 kts 75°
2026-05-04 17:01 46.67856 -56.22057 38414 ft 543 kts 75°
2026-05-04 17:02 46.72367 -56.01094 38423 ft 544 kts 75°
2026-05-04 17:03 46.75734 -55.85294 38433 ft 543 kts 76°
2026-05-04 17:03 46.79061 -55.69570 38456 ft 543 kts 76°
2026-05-04 17:04 46.83491 -55.48450 38468 ft 542 kts 76°
2026-05-04 17:05 46.87851 -55.27445 38464 ft 541 kts 76°
2026-05-04 17:06 46.91103 -55.11620 38470 ft 542 kts 76°
2026-05-04 17:07 46.93978 -54.97537 38462 ft 541 kts 77°
2026-05-04 17:07 46.96470 -54.85249 38462 ft 541 kts 77°
2026-05-04 17:08 46.99645 -54.69474 38467 ft 541 kts 77°
2026-05-04 17:09 47.01750 -54.58944 38464 ft 541 kts 77°
2026-05-04 17:09 47.03853 -54.48379 38465 ft 538 kts 77°
2026-05-04 17:10 47.09031 -54.22086 38468 ft 537 kts 77°
2026-05-04 17:11 47.11090 -54.11535 38480 ft 537 kts 78°
2026-05-04 17:12 47.14155 -53.95721 38475 ft 536 kts 78°
2026-05-04 17:13 47.19207 -53.69366 38486 ft 537 kts 78°
2026-05-04 17:14 47.23212 -53.48204 38502 ft 536 kts 78°
2026-05-04 17:15 47.26176 -53.32385 38501 ft 536 kts 79°
2026-05-04 17:16 47.30114 -53.11167 38511 ft 537 kts 79°
2026-05-04 17:17 47.34012 -52.89916 38515 ft 538 kts 79°
2026-05-04 17:18 47.37864 -52.68684 38512 ft 536 kts 79°
2026-05-04 17:19 47.41627 -52.47684 38542 ft 536 kts 79°
2026-05-04 17:20 47.45407 -52.26342 38561 ft 536 kts 80°
2026-05-04 17:20 47.48199 -52.10419 38592 ft 535 kts 80°
2026-05-04 17:21 47.52751 -51.89376 38595 ft 540 kts 73°
2026-05-04 17:22 47.55444 -51.79002 38614 ft 539 kts 73°
2026-05-04 17:23 47.60821 -51.58242 38618 ft 540 kts 73°
2026-05-04 17:24 47.64805 -51.42656 38627 ft 541 kts 73°
2026-05-04 17:25 47.70087 -51.21822 38639 ft 540 kts 74°
2026-05-04 17:26 47.75331 -51.00948 38651 ft 539 kts 74°
2026-05-04 17:27 47.81830 -50.74811 38644 ft 538 kts 74°
2026-05-04 17:28 47.86973 -50.53908 38680 ft 538 kts 75°
2026-05-04 17:29 47.94177 -50.24289 38697 ft 537 kts 75°
2026-05-04 17:31 48.00454 -49.98167 38719 ft 535 kts 75°
2026-05-04 17:32 48.07011 -49.72104 38718 ft 535 kts 74°
2026-05-04 17:33 48.12197 -49.51281 38733 ft 535 kts 75°
2026-05-04 17:34 48.17337 -49.30393 38737 ft 534 kts 75°
2026-05-04 17:35 48.23695 -49.04289 38755 ft 533 kts 75°
2026-05-04 17:36 48.26208 -48.93884 38754 ft 533 kts 75°
2026-05-04 17:36 48.28726 -48.83412 38733 ft 533 kts 75°
2026-05-04 17:37 48.31237 -48.72913 38763 ft 534 kts 75°
2026-05-04 17:37 48.33727 -48.62459 38763 ft 534 kts 75°
2026-05-04 17:38 48.36223 -48.51931 38757 ft 534 kts 76°
2026-05-04 17:38 48.38712 -48.41379 38774 ft 534 kts 76°
2026-05-04 17:39 48.42419 -48.25559 38777 ft 534 kts 76°
2026-05-04 17:39 48.44864 -48.15064 38779 ft 534 kts 76°
2026-05-04 17:40 48.47316 -48.04494 38793 ft 532 kts 76°
2026-05-04 17:40 48.49747 -47.93959 38793 ft 531 kts 76°
2026-05-04 17:41 48.52152 -47.83481 38760 ft 531 kts 77°
2026-05-04 17:41 48.54562 -47.72926 38946 ft 531 kts 77°
2026-05-04 17:42 48.55762 -47.67661 39191 ft 527 kts 77°
2026-05-04 17:42 48.56950 -47.62440 39483 ft 524 kts 77°
2026-05-04 17:42 48.58115 -47.57303 39651 ft 523 kts 77°
2026-05-04 17:42 48.59289 -47.52104 39772 ft 523 kts 77°
2026-05-04 17:43 48.60462 -47.46894 39892 ft 523 kts 76°
2026-05-04 17:43 48.61631 -47.41689 40014 ft 523 kts 76°
2026-05-04 17:43 48.62799 -47.36478 40142 ft 523 kts 76°
2026-05-04 17:43 48.63966 -47.31259 40247 ft 523 kts 76°
2026-05-04 17:44 48.65129 -47.26050 40358 ft 522 kts 76°
2026-05-04 17:44 48.66289 -47.20842 40554 ft 520 kts 76°
2026-05-04 17:44 48.67429 -47.15711 40707 ft 519 kts 76°
2026-05-04 17:44 48.68579 -47.10520 40799 ft 519 kts 76°
2026-05-04 17:45 48.70866 -47.00150 40824 ft 523 kts 76°
2026-05-04 17:45 48.73168 -46.89664 40823 ft 524 kts 76°
2026-05-04 17:46 48.75461 -46.79176 40813 ft 523 kts 76°
2026-05-04 17:46 48.77737 -46.68713 40834 ft 521 kts 77°
2026-05-04 17:47 48.79999 -46.58251 40837 ft 521 kts 77°
2026-05-04 17:47 48.82235 -46.47859 40838 ft 521 kts 77°
2026-05-04 17:48 48.84478 -46.37382 40830 ft 521 kts 77°
2026-05-04 17:48 48.86704 -46.26931 40838 ft 519 kts 77°
2026-05-04 17:49 48.88919 -46.16481 40839 ft 518 kts 77°
2026-05-04 17:49 48.91104 -46.06112 40844 ft 518 kts 77°
2026-05-04 17:50 48.93295 -45.95666 40838 ft 518 kts 77°
2026-05-04 17:50 48.95471 -45.85240 40849 ft 516 kts 77°
2026-05-04 17:51 48.97630 -45.74839 40854 ft 515 kts 77°
2026-05-04 17:51 48.99767 -45.64488 40856 ft 515 kts 77°
2026-05-04 17:52 49.01910 -45.54052 40872 ft 515 kts 77°
2026-05-04 17:52 49.04040 -45.43634 40870 ft 513 kts 77°
2026-05-04 17:53 49.06137 -45.33321 40871 ft 512 kts 78°
2026-05-04 17:53 49.08241 -45.22911 40873 ft 512 kts 78°
2026-05-04 17:54 49.10318 -45.12582 40877 ft 512 kts 78°
2026-05-04 17:54 49.12401 -45.02169 40880 ft 511 kts 78°
2026-05-04 17:55 49.14469 -44.91774 40881 ft 511 kts 78°
2026-05-04 17:55 49.16518 -44.81422 40884 ft 511 kts 78°
2026-05-04 17:56 49.18570 -44.71000 40893 ft 512 kts 77°
2026-05-04 17:56 49.20604 -44.60618 40895 ft 513 kts 78°
2026-05-04 17:57 49.22645 -44.50144 40900 ft 513 kts 78°
2026-05-04 17:57 49.24675 -44.39665 40902 ft 513 kts 78°
2026-05-04 17:58 49.26683 -44.29242 40908 ft 513 kts 78°
2026-05-04 17:58 49.28692 -44.18751 40903 ft 513 kts 77°
2026-05-04 17:59 49.30680 -44.08315 40917 ft 513 kts 78°
2026-05-04 18:00 49.33668 -43.92525 40943 ft 513 kts 78°
2026-05-04 18:00 49.34474 -43.88238 40944 ft 513 kts 78°
2026-05-04 18:01 49.36022 -43.79990 40950 ft 513 kts 78°
2026-05-04 18:02 49.38953 -43.64256 40970 ft 514 kts 77°
2026-05-04 18:02 49.40913 -43.53663 40962 ft 515 kts 77°
2026-05-04 18:03 49.42863 -43.43066 40975 ft 515 kts 77°
2026-05-04 18:03 49.44793 -43.32516 40990 ft 515 kts 77°
2026-05-04 18:04 49.46728 -43.21874 40992 ft 516 kts 77°
2026-05-04 18:05 49.49607 -43.05923 41019 ft 518 kts 77°
2026-05-04 18:05 49.51525 -42.95227 41014 ft 518 kts 78°
2026-05-04 18:06 49.54368 -42.79242 41019 ft 518 kts 77°
2026-05-04 18:06 49.56263 -42.68511 41024 ft 519 kts 77°
2026-05-04 18:07 49.58151 -42.57748 41034 ft 519 kts 77°
2026-05-04 18:07 49.60016 -42.47057 41047 ft 519 kts 77°
2026-05-04 18:08 49.61886 -42.36275 41054 ft 519 kts 77°
2026-05-04 18:08 49.63733 -42.25555 41059 ft 520 kts 77°
2026-05-04 18:09 49.67426 -42.03932 41072 ft 520 kts 77°
2026-05-04 18:10 49.69243 -41.93187 41084 ft 520 kts 77°
2026-05-04 18:10 49.71067 -41.82334 41095 ft 521 kts 77°
2026-05-04 18:11 49.72871 -41.71532 41103 ft 522 kts 77°
2026-05-04 18:11 49.74680 -41.60640 41114 ft 522 kts 77°
2026-05-04 18:12 49.76480 -41.49724 41109 ft 522 kts 77°
2026-05-04 18:12 49.78255 -41.38884 41121 ft 522 kts 77°
2026-05-04 18:13 49.80033 -41.27964 41127 ft 522 kts 77°
2026-05-04 18:14 49.82668 -41.11655 41135 ft 522 kts 77°
2026-05-04 18:14 49.84419 -41.00723 41143 ft 522 kts 77°
2026-05-04 18:15 49.87893 -40.78818 41160 ft 523 kts 76°
2026-05-04 18:16 49.89603 -40.67926 41171 ft 523 kts 77°
2026-05-04 18:16 49.91317 -40.56933 41170 ft 523 kts 77°
2026-05-04 18:17 49.93858 -40.40493 41181 ft 524 kts 76°
2026-05-04 18:18 49.96392 -40.23943 41190 ft 525 kts 76°
2026-05-04 18:18 49.98070 -40.12889 41195 ft 525 kts 76°
2026-05-04 18:19 50.00932 -39.96542 41203 ft 524 kts 69°
2026-05-04 18:19 50.03520 -39.85921 41206 ft 524 kts 68°
2026-05-04 18:20 50.06166 -39.75429 41208 ft 524 kts 67°
2026-05-04 18:20 50.08828 -39.64845 41208 ft 524 kts 68°
2026-05-04 18:21 50.11466 -39.54250 41216 ft 525 kts 67°
2026-05-04 18:21 50.14077 -39.43691 41225 ft 525 kts 67°
2026-05-04 18:22 50.16700 -39.33030 41224 ft 525 kts 68°
2026-05-04 18:22 50.18867 -39.24179 41236 ft 525 kts 68°
2026-05-04 18:23 50.21889 -39.11783 41244 ft 526 kts 67°
2026-05-04 18:23 50.24049 -39.02876 41244 ft 526 kts 67°
2026-05-04 18:24 50.27054 -38.90427 41241 ft 526 kts 67°
2026-05-04 18:24 50.29194 -38.81518 41246 ft 526 kts 67°
2026-05-04 18:25 50.31759 -38.70797 41255 ft 525 kts 67°
2026-05-04 18:25 50.34316 -38.60052 41263 ft 525 kts 67°
2026-05-04 18:26 50.36859 -38.49309 41265 ft 525 kts 67°
2026-05-04 18:26 50.39376 -38.38625 41270 ft 525 kts 67°
2026-05-04 18:27 50.41900 -38.27861 41271 ft 524 kts 67°
2026-05-04 18:27 50.44409 -38.17105 41275 ft 524 kts 67°
2026-05-04 18:28 50.46887 -38.06429 41282 ft 524 kts 67°
2026-05-04 18:28 50.49373 -37.95663 41280 ft 524 kts 67°
2026-05-04 18:29 50.51849 -37.84887 41294 ft 522 kts 66°
2026-05-04 18:29 50.54293 -37.74195 41298 ft 521 kts 67°
2026-05-04 18:30 50.57944 -37.58128 41306 ft 521 kts 67°
2026-05-04 18:31 50.60374 -37.47362 41313 ft 521 kts 66°
2026-05-04 18:31 50.62789 -37.36607 41307 ft 519 kts 67°
2026-05-04 18:32 50.65173 -37.25937 41313 ft 518 kts 67°
2026-05-04 18:32 50.67560 -37.15201 41303 ft 518 kts 67°
2026-05-04 18:33 50.69940 -37.04444 41326 ft 518 kts 67°
2026-05-04 18:33 50.72283 -36.93783 41318 ft 514 kts 66°
2026-05-04 18:34 50.74615 -36.83130 41320 ft 512 kts 67°
2026-05-04 18:34 50.76921 -36.72544 41322 ft 512 kts 67°
2026-05-04 18:35 50.79235 -36.61869 41348 ft 512 kts 67°
2026-05-04 18:35 50.81534 -36.51200 41330 ft 510 kts 67°
2026-05-04 18:36 50.83798 -36.40637 41330 ft 509 kts 67°
2026-05-04 18:36 50.86066 -36.30007 41333 ft 509 kts 67°
2026-05-04 18:37 50.88324 -36.19365 41334 ft 509 kts 67°
2026-05-04 18:37 50.90557 -36.08784 41341 ft 509 kts 67°
2026-05-04 18:38 50.92794 -35.98128 41344 ft 509 kts 67°
2026-05-04 18:38 50.95022 -35.87461 41344 ft 509 kts 67°
2026-05-04 18:39 50.97241 -35.76784 41344 ft 509 kts 67°
2026-05-04 18:39 50.99438 -35.66149 41346 ft 509 kts 67°
2026-05-04 18:40 51.01625 -35.55507 41350 ft 509 kts 68°
2026-05-04 18:40 51.03816 -35.44785 41346 ft 509 kts 68°
2026-05-04 18:41 51.05984 -35.34123 41345 ft 509 kts 68°
2026-05-04 18:41 51.08155 -35.23387 41356 ft 509 kts 68°
2026-05-04 18:42 51.10316 -35.12651 41354 ft 509 kts 68°
2026-05-04 18:42 51.12454 -35.01961 41357 ft 509 kts 68°
2026-05-04 18:43 51.14591 -34.91217 41359 ft 508 kts 68°
2026-05-04 18:43 51.16717 -34.80471 41371 ft 508 kts 68°
2026-05-04 18:44 51.18815 -34.69804 41358 ft 507 kts 68°
2026-05-04 18:44 51.20915 -34.59065 41363 ft 507 kts 68°
2026-05-04 18:45 51.23010 -34.48297 41366 ft 507 kts 68°
2026-05-04 18:45 51.25079 -34.37602 41392 ft 507 kts 68°
2026-05-04 18:46 51.27153 -34.26821 41365 ft 507 kts 69°
2026-05-04 18:46 51.29219 -34.16018 41374 ft 507 kts 69°
2026-05-04 18:47 51.31258 -34.05294 41368 ft 507 kts 69°
2026-05-04 18:47 51.33301 -33.94490 41376 ft 507 kts 69°
2026-05-04 18:48 51.35338 -33.83659 41386 ft 508 kts 69°
2026-05-04 18:48 51.37354 -33.72875 41382 ft 508 kts 69°
2026-05-04 18:49 51.39370 -33.62025 41384 ft 509 kts 69°
2026-05-04 18:49 51.41380 -33.51140 41383 ft 509 kts 69°
2026-05-04 18:50 51.43370 -33.40306 41390 ft 509 kts 70°
2026-05-04 18:50 51.45363 -33.29394 41387 ft 509 kts 70°
2026-05-04 18:51 51.47344 -33.18477 41391 ft 510 kts 70°
2026-05-04 18:51 51.49306 -33.07602 41398 ft 510 kts 70°
2026-05-04 18:52 51.51267 -32.96665 41402 ft 510 kts 70°
2026-05-04 18:52 51.53226 -32.85672 41400 ft 510 kts 70°
2026-05-04 18:53 51.55158 -32.74770 41398 ft 510 kts 70°
2026-05-04 18:53 51.57092 -32.63784 41400 ft 510 kts 71°
2026-05-04 18:54 51.59018 -32.52780 41419 ft 510 kts 71°
2026-05-04 18:54 51.60928 -32.41796 41403 ft 510 kts 71°
2026-05-04 18:55 51.62818 -32.30858 41407 ft 510 kts 71°
2026-05-04 18:55 51.65654 -32.14323 41409 ft 510 kts 71°
2026-05-04 18:56 51.67521 -32.03350 41415 ft 510 kts 71°
2026-05-04 18:56 51.69386 -31.92315 41415 ft 510 kts 71°
2026-05-04 18:57 51.71242 -31.81267 41413 ft 510 kts 72°
2026-05-04 18:57 51.73087 -31.70212 41414 ft 510 kts 72°
2026-05-04 18:58 51.74910 -31.59222 41433 ft 510 kts 72°
2026-05-04 18:58 51.76736 -31.48144 41415 ft 510 kts 72°
2026-05-04 18:59 51.78548 -31.37071 41415 ft 510 kts 72°
2026-05-04 18:59 51.80351 -31.25983 41418 ft 510 kts 72°
2026-05-04 19:00 51.82132 -31.14960 41419 ft 510 kts 72°
2026-05-04 19:00 51.83918 -31.03834 41417 ft 510 kts 72°
2026-05-04 19:01 51.85691 -30.92712 41417 ft 510 kts 72°
2026-05-04 19:01 51.87456 -30.81569 41419 ft 510 kts 72°
2026-05-04 19:02 51.89197 -30.70500 41418 ft 510 kts 73°
2026-05-04 19:02 51.90941 -30.59341 41418 ft 510 kts 73°
2026-05-04 19:03 51.92673 -30.48172 41416 ft 510 kts 73°
2026-05-04 19:03 51.94383 -30.37077 41421 ft 510 kts 73°
2026-05-04 19:04 51.96094 -30.25900 41421 ft 510 kts 73°
2026-05-04 19:04 51.97795 -30.14708 41424 ft 510 kts 73°
2026-05-04 19:05 51.99479 -30.03586 41415 ft 510 kts 73°
2026-05-04 19:05 52.01828 -29.92801 41416 ft 506 kts 65°
2026-05-04 19:06 52.04467 -29.82177 41418 ft 506 kts 65°
2026-05-04 19:06 52.07125 -29.71641 41428 ft 506 kts 65°
2026-05-04 19:07 52.09787 -29.61017 41414 ft 506 kts 65°
2026-05-04 19:07 52.12411 -29.50449 41414 ft 506 kts 65°
2026-05-04 19:08 52.15034 -29.39816 41417 ft 506 kts 65°
2026-05-04 19:08 52.17652 -29.29153 41430 ft 506 kts 66°
2026-05-04 19:09 52.20243 -29.18553 41415 ft 506 kts 66°
2026-05-04 19:09 52.22844 -29.07859 41416 ft 506 kts 66°
2026-05-04 19:10 52.25413 -28.97242 41415 ft 506 kts 66°
2026-05-04 19:10 52.27995 -28.86522 41416 ft 506 kts 66°
2026-05-04 19:11 52.30544 -28.75888 41421 ft 506 kts 66°
2026-05-04 19:11 52.33099 -28.65175 41416 ft 506 kts 66°
2026-05-04 19:12 52.36918 -28.49062 41420 ft 506 kts 66°
2026-05-04 19:13 52.39433 -28.38385 41423 ft 506 kts 66°
2026-05-04 19:13 52.41958 -28.27611 41415 ft 506 kts 67°
2026-05-04 19:14 52.44459 -28.16887 41411 ft 506 kts 67°
2026-05-04 19:14 52.46964 -28.06094 41417 ft 506 kts 67°
2026-05-04 19:15 52.49445 -27.95347 41427 ft 506 kts 67°
2026-05-04 19:15 52.51926 -27.84544 41425 ft 506 kts 67°
2026-05-04 19:16 52.54401 -27.73717 41419 ft 506 kts 67°
2026-05-04 19:16 52.56863 -27.62887 41404 ft 506 kts 67°
2026-05-04 19:17 52.59304 -27.52096 41421 ft 506 kts 68°
2026-05-04 19:17 52.61748 -27.41234 41408 ft 506 kts 68°
2026-05-04 19:18 52.64179 -27.30373 41407 ft 506 kts 68°
2026-05-04 19:18 52.66604 -27.19484 41405 ft 506 kts 68°
2026-05-04 19:19 52.69018 -27.08588 41409 ft 506 kts 68°
2026-05-04 19:19 52.71409 -26.97739 41406 ft 506 kts 68°
2026-05-04 19:20 52.73807 -26.86801 41402 ft 506 kts 68°
2026-05-04 19:20 52.75793 -26.77694 41405 ft 506 kts 68°
2026-05-04 19:21 52.78169 -26.66750 41404 ft 506 kts 68°
2026-05-04 19:21 52.80918 -26.54016 41403 ft 506 kts 68°
2026-05-04 19:22 52.82892 -26.44822 41399 ft 506 kts 68°
2026-05-04 19:22 52.85223 -26.33909 41401 ft 506 kts 69°
2026-05-04 19:23 52.87562 -26.22902 41403 ft 506 kts 69°
2026-05-04 19:23 52.89890 -26.11885 41406 ft 506 kts 69°
2026-05-04 19:24 52.92194 -26.00921 41400 ft 506 kts 69°
2026-05-04 19:24 52.94500 -25.89889 41398 ft 506 kts 69°
2026-05-04 19:25 52.96797 -25.78843 41401 ft 506 kts 69°
2026-05-04 19:25 52.99072 -25.67840 41405 ft 506 kts 69°
2026-05-04 19:26 53.01349 -25.56762 41395 ft 506 kts 69°
2026-05-04 19:26 53.03599 -25.45756 41395 ft 506 kts 69°
2026-05-04 19:27 53.05858 -25.34648 41395 ft 506 kts 69°
2026-05-04 19:27 53.08100 -25.23556 41395 ft 506 kts 70°
2026-05-04 19:28 53.10320 -25.12515 41392 ft 506 kts 70°
2026-05-04 19:28 53.12543 -25.01397 41390 ft 506 kts 70°
2026-05-04 19:29 53.14755 -24.90267 41393 ft 506 kts 70°
2026-05-04 19:29 53.16956 -24.79131 41387 ft 506 kts 70°
2026-05-04 19:30 53.19135 -24.68040 41388 ft 505 kts 70°
2026-05-04 19:30 53.21314 -24.56887 41387 ft 505 kts 70°
2026-05-04 19:31 53.23482 -24.45727 41385 ft 505 kts 70°
2026-05-04 19:31 53.25638 -24.34559 41382 ft 505 kts 70°
2026-05-04 19:32 53.27773 -24.23437 41386 ft 505 kts 70°
2026-05-04 19:32 53.29910 -24.12243 41382 ft 504 kts 70°
2026-05-04 19:33 53.32033 -24.01050 41377 ft 504 kts 70°
2026-05-04 19:33 53.34133 -23.89918 41379 ft 504 kts 71°
2026-05-04 19:34 53.36235 -23.78708 41387 ft 504 kts 71°
2026-05-04 19:34 53.38312 -23.67564 41373 ft 504 kts 71°
2026-05-04 19:35 53.40390 -23.56344 41374 ft 503 kts 71°
2026-05-04 19:35 53.42459 -23.45109 41371 ft 503 kts 71°
2026-05-04 19:36 53.44503 -23.33944 41371 ft 503 kts 71°
2026-05-04 19:36 53.46551 -23.22687 41368 ft 503 kts 71°
2026-05-04 19:37 53.48587 -23.11423 41362 ft 503 kts 71°
2026-05-04 19:37 53.50598 -23.00230 41363 ft 503 kts 71°
2026-05-04 19:38 53.52612 -22.88953 41360 ft 503 kts 71°
2026-05-04 19:38 53.54615 -22.77667 41363 ft 503 kts 71°
2026-05-04 19:39 53.56607 -22.66374 41354 ft 503 kts 71°
2026-05-04 19:39 53.58588 -22.55068 41354 ft 503 kts 72°
2026-05-04 19:40 53.60548 -22.43816 41354 ft 503 kts 72°
2026-05-04 19:40 53.62505 -22.32506 41359 ft 503 kts 72°
2026-05-04 19:41 53.64456 -22.21160 41348 ft 503 kts 72°
2026-05-04 19:41 53.66380 -22.09896 41347 ft 503 kts 72°
2026-05-04 19:42 53.68308 -21.98541 41347 ft 503 kts 72°
2026-05-04 19:42 53.70224 -21.87181 41341 ft 503 kts 72°
2026-05-04 19:43 53.72130 -21.75807 41340 ft 503 kts 72°
2026-05-04 19:43 53.74026 -21.64417 41341 ft 503 kts 72°
2026-05-04 19:44 53.75898 -21.53092 41342 ft 503 kts 72°
2026-05-04 19:44 53.77494 -21.43385 41341 ft 503 kts 72°
2026-05-04 19:45 53.78239 -21.38828 41341 ft 503 kts 72°
2026-05-04 19:46 53.80089 -21.27473 41330 ft 503 kts 72°
2026-05-04 19:46 53.81941 -21.16027 41337 ft 503 kts 73°
2026-05-04 19:47 53.83782 -21.04572 41333 ft 503 kts 73°
2026-05-04 19:47 53.85611 -20.93117 41332 ft 503 kts 73°
2026-05-04 19:48 53.87408 -20.81780 41331 ft 503 kts 73°
2026-05-04 19:48 53.87960 -20.78285 41332 ft 503 kts 73°
2026-05-04 19:49 53.89765 -20.66798 41327 ft 503 kts 73°
2026-05-04 19:49 53.91445 -20.56031 41317 ft 503 kts 73°
2026-05-04 19:50 53.93225 -20.44545 41319 ft 503 kts 73°
2026-05-04 19:50 53.94994 -20.33053 41320 ft 503 kts 73°
2026-05-04 19:51 53.96741 -20.21624 41313 ft 503 kts 73°
2026-05-04 19:51 53.98492 -20.10086 41314 ft 503 kts 73°
2026-05-04 19:52 53.99917 -19.98421 41317 ft 505 kts 84°
2026-05-04 19:52 54.00327 -19.86553 41304 ft 506 kts 86°
2026-05-04 19:53 54.00551 -19.74558 41308 ft 507 kts 87°
2026-05-04 19:53 54.00740 -19.62565 41300 ft 507 kts 87°
2026-05-04 19:54 54.00932 -19.50657 41297 ft 507 kts 87°
2026-05-04 19:54 54.01124 -19.38657 41298 ft 507 kts 87°
2026-05-04 19:55 54.01307 -19.26662 41299 ft 507 kts 87°
2026-05-04 19:55 54.01478 -19.14679 41293 ft 507 kts 87°
2026-05-04 19:56 54.01635 -19.02743 41292 ft 507 kts 87°
2026-05-04 19:56 54.01781 -18.90740 41289 ft 507 kts 87°
2026-05-04 19:57 54.01915 -18.78752 41286 ft 507 kts 87°
2026-05-04 19:57 54.02038 -18.66731 41287 ft 507 kts 88°
2026-05-04 19:58 54.02147 -18.54821 41280 ft 507 kts 88°
2026-05-04 19:58 54.02246 -18.42818 41272 ft 507 kts 88°
2026-05-04 19:59 54.02332 -18.30796 41278 ft 507 kts 88°
2026-05-04 19:59 54.02406 -18.18873 41282 ft 507 kts 88°
2026-05-04 20:00 54.02469 -18.06865 41275 ft 507 kts 88°
2026-05-04 20:00 54.02519 -17.94879 41262 ft 507 kts 88°
2026-05-04 20:01 54.02558 -17.82945 41266 ft 507 kts 88°
2026-05-04 20:01 54.02585 -17.70927 41257 ft 507 kts 88°
2026-05-04 20:02 54.02600 -17.58944 41260 ft 507 kts 88°
2026-05-04 20:02 54.02602 -17.46940 41258 ft 507 kts 88°
2026-05-04 20:03 54.02593 -17.34946 41255 ft 507 kts 89°
2026-05-04 20:03 54.02573 -17.23024 41256 ft 507 kts 89°
2026-05-04 20:04 54.02540 -17.11030 41253 ft 506 kts 89°
2026-05-04 20:04 54.02495 -16.99046 41248 ft 506 kts 89°
2026-05-04 20:05 54.02438 -16.87059 41248 ft 506 kts 89°
2026-05-04 20:05 54.02370 -16.75155 41247 ft 506 kts 89°
2026-05-04 20:06 54.02290 -16.63180 41236 ft 506 kts 89°
2026-05-04 20:06 54.02198 -16.51207 41236 ft 506 kts 89°
2026-05-04 20:07 54.02097 -16.39668 41231 ft 506 kts 89°
2026-05-04 20:07 54.01982 -16.27667 41230 ft 506 kts 89°
2026-05-04 20:08 54.01854 -16.15694 41230 ft 506 kts 90°
2026-05-04 20:08 54.01715 -16.03723 41234 ft 506 kts 90°
2026-05-04 20:09 54.01564 -15.91816 41231 ft 506 kts 90°
2026-05-04 20:09 54.01401 -15.79834 41232 ft 506 kts 90°
2026-05-04 20:10 54.01226 -15.67853 41230 ft 506 kts 90°
2026-05-04 20:10 54.01040 -15.55948 41227 ft 506 kts 90°
2026-05-04 20:11 54.00862 -15.45218 41213 ft 506 kts 90°
2026-05-04 20:11 54.00653 -15.33261 41223 ft 505 kts 90°
2026-05-04 20:12 54.00432 -15.21305 41219 ft 505 kts 90°
2026-05-04 20:12 54.00199 -15.09350 41214 ft 505 kts 91°
2026-05-04 20:13 53.99959 -14.97415 41217 ft 505 kts 90°
2026-05-04 20:13 53.99945 -14.85549 41214 ft 505 kts 88°
2026-05-04 20:14 54.00045 -14.73595 41214 ft 505 kts 88°
2026-05-04 20:14 54.00097 -14.63666 41206 ft 505 kts 88°
2026-05-04 20:15 54.00118 -14.49773 41206 ft 505 kts 89°
2026-05-04 20:15 54.00112 -14.39772 41206 ft 505 kts 89°
2026-05-04 20:16 54.00093 -14.27908 41205 ft 504 kts 89°
2026-05-04 20:16 54.00065 -14.15977 41199 ft 504 kts 89°
2026-05-04 20:17 53.99951 -14.04041 41201 ft 505 kts 94°
2026-05-04 20:17 53.98477 -13.92403 41196 ft 506 kts 107°
2026-05-04 20:18 53.96255 -13.81042 41197 ft 506 kts 109°
2026-05-04 20:18 53.93926 -13.69820 41193 ft 506 kts 109°
2026-05-04 20:19 53.91588 -13.58569 41192 ft 505 kts 109°
2026-05-04 20:19 53.89263 -13.47322 41191 ft 505 kts 109°
2026-05-04 20:20 53.86936 -13.36082 41189 ft 505 kts 109°
2026-05-04 20:20 53.84601 -13.24867 41186 ft 505 kts 109°
2026-05-04 20:21 53.82253 -13.13652 41186 ft 505 kts 109°
2026-05-04 20:21 53.78731 -12.96956 41180 ft 504 kts 109°
2026-05-04 20:22 53.76363 -12.85806 41185 ft 503 kts 109°
2026-05-04 20:22 53.73984 -12.74665 41181 ft 503 kts 109°
2026-05-04 20:23 53.71598 -12.63552 41182 ft 503 kts 109°
2026-05-04 20:23 53.69201 -12.52447 41181 ft 503 kts 110°
2026-05-04 20:24 53.66806 -12.41415 41178 ft 503 kts 110°
2026-05-04 20:24 53.64387 -12.30331 41170 ft 503 kts 110°
2026-05-04 20:25 53.61958 -12.19258 41168 ft 503 kts 110°
2026-05-04 20:25 53.59537 -12.08284 41171 ft 502 kts 110°
2026-05-04 20:26 53.57092 -11.97258 41178 ft 502 kts 110°
2026-05-04 20:26 53.54639 -11.86253 41171 ft 502 kts 110°
2026-05-04 20:27 53.52191 -11.75329 41167 ft 502 kts 110°
2026-05-04 20:27 53.49719 -11.64355 41170 ft 502 kts 110°
2026-05-04 20:28 53.47236 -11.53392 41171 ft 502 kts 110°
2026-05-04 20:28 53.44744 -11.42445 41160 ft 502 kts 110°
2026-05-04 20:29 53.42242 -11.31513 41165 ft 500 kts 110°
2026-05-04 20:29 53.39743 -11.20645 41170 ft 500 kts 110°
2026-05-04 20:30 53.37233 -11.09784 41163 ft 500 kts 110°
2026-05-04 20:30 53.34727 -10.98999 41163 ft 500 kts 111°
2026-05-04 20:31 53.32191 -10.88142 41163 ft 500 kts 111°
2026-05-04 20:31 53.29650 -10.77316 41162 ft 500 kts 111°
2026-05-04 20:32 53.27096 -10.66487 41162 ft 500 kts 111°
2026-05-04 20:32 53.24532 -10.55676 41159 ft 499 kts 111°
2026-05-04 20:33 53.21981 -10.44969 41160 ft 499 kts 111°
2026-05-04 20:33 53.19403 -10.34202 41154 ft 499 kts 111°
2026-05-04 20:34 53.16818 -10.23460 41159 ft 499 kts 111°
2026-05-04 20:34 53.14239 -10.12795 41157 ft 499 kts 111°
2026-05-04 20:35 53.11637 -10.02089 41150 ft 499 kts 111°
2026-05-04 20:35 53.09023 -9.91383 41153 ft 499 kts 111°
2026-05-04 20:36 53.06396 -9.80680 41157 ft 499 kts 111°
2026-05-04 20:36 53.03764 -9.70007 41151 ft 499 kts 111°
2026-05-04 20:37 53.01122 -9.59347 41145 ft 499 kts 111°
2026-05-04 20:37 52.98489 -9.48769 41141 ft 498 kts 111°
2026-05-04 20:38 52.95826 -9.38126 41152 ft 499 kts 112°
2026-05-04 20:38 52.93156 -9.27506 41136 ft 498 kts 112°
2026-05-04 20:39 52.90476 -9.16896 41141 ft 499 kts 112°
2026-05-04 20:39 52.87790 -9.06310 41136 ft 496 kts 112°
2026-05-04 20:40 52.85125 -8.95862 41137 ft 494 kts 112°
2026-05-04 20:40 52.82444 -8.85396 41130 ft 494 kts 112°
2026-05-04 20:41 52.79753 -8.74943 41133 ft 494 kts 112°
2026-05-04 20:41 52.77064 -8.64540 41131 ft 494 kts 112°
2026-05-04 20:42 52.74354 -8.54108 41116 ft 494 kts 112°
2026-05-04 20:42 52.71633 -8.43684 41130 ft 494 kts 112°
2026-05-04 20:43 52.68908 -8.33292 41115 ft 492 kts 112°
2026-05-04 20:43 52.66200 -8.23011 41129 ft 491 kts 112°
2026-05-04 20:44 52.63468 -8.12683 41109 ft 491 kts 112°
2026-05-04 20:44 52.60749 -8.02450 41108 ft 491 kts 113°
2026-05-04 20:45 52.58007 -7.92181 41122 ft 490 kts 113°
2026-05-04 20:45 52.55260 -7.81940 41125 ft 489 kts 113°
2026-05-04 20:46 52.52504 -7.71706 41103 ft 489 kts 113°
2026-05-04 20:46 52.49742 -7.61500 41105 ft 488 kts 112°
2026-05-04 20:47 52.46988 -7.51366 41114 ft 488 kts 113°
2026-05-04 20:47 52.44212 -7.41192 41103 ft 488 kts 113°
2026-05-04 20:48 52.41427 -7.31032 41099 ft 488 kts 113°
2026-05-04 20:48 52.38645 -7.20930 41100 ft 488 kts 114°
2026-05-04 20:49 52.35842 -7.10796 41100 ft 488 kts 114°
2026-05-04 20:49 52.33039 -7.00703 41101 ft 488 kts 114°
2026-05-04 20:50 52.30215 -6.90582 41101 ft 488 kts 114°
2026-05-04 20:50 52.27387 -6.80489 41099 ft 489 kts 114°
2026-05-04 20:51 52.24546 -6.70395 41096 ft 489 kts 114°
2026-05-04 20:51 52.21708 -6.60351 41094 ft 489 kts 114°
2026-05-04 20:52 52.18848 -6.50278 41089 ft 489 kts 114°
2026-05-04 20:52 52.15984 -6.40226 41096 ft 489 kts 114°
2026-05-04 20:53 52.13127 -6.30247 41089 ft 489 kts 114°
2026-05-04 20:53 52.10243 -6.20211 41086 ft 489 kts 115°
2026-05-04 20:54 52.07345 -6.10175 41088 ft 489 kts 115°
2026-05-04 20:54 52.04467 -6.00220 41086 ft 489 kts 115°
2026-05-04 20:55 52.01637 -5.90165 41083 ft 489 kts 114°
2026-05-04 20:55 51.98817 -5.80090 41080 ft 489 kts 114°
2026-05-04 20:56 51.96002 -5.70122 41080 ft 489 kts 115°
2026-05-04 20:56 51.93151 -5.60102 41075 ft 489 kts 115°
2026-05-04 20:57 51.90287 -5.50087 41073 ft 489 kts 115°
2026-05-04 20:57 51.87419 -5.40099 41069 ft 489 kts 115°
2026-05-04 20:58 51.84540 -5.30114 41070 ft 489 kts 115°
2026-05-04 20:58 51.81671 -5.20205 41064 ft 489 kts 115°
2026-05-04 20:59 51.78780 -5.10259 41062 ft 489 kts 115°
2026-05-04 20:59 51.75937 -5.00272 41061 ft 489 kts 113°
2026-05-04 21:00 51.73314 -4.90189 41064 ft 489 kts 112°
2026-05-04 21:00 51.70694 -4.80040 41056 ft 489 kts 112°
2026-05-04 21:01 51.68040 -4.69950 41056 ft 489 kts 113°
2026-05-04 21:01 51.65354 -4.59867 41053 ft 489 kts 113°
2026-05-04 21:02 51.62668 -4.49849 41048 ft 489 kts 113°
2026-05-04 21:02 51.59958 -4.39781 41048 ft 489 kts 113°
2026-05-04 21:03 51.57261 -4.29799 41048 ft 490 kts 113°
2026-05-04 21:03 51.54695 -4.19636 41042 ft 491 kts 106°
2026-05-04 21:04 51.53194 -4.08931 41042 ft 491 kts 101°
2026-05-04 21:04 51.52170 -3.99956 41043 ft 491 kts 100°
2026-05-04 21:05 51.50980 -3.89151 41045 ft 491 kts 100°
2026-05-04 21:05 51.49569 -3.76571 41045 ft 493 kts 101°
2026-05-04 21:06 51.48520 -3.67492 41039 ft 493 kts 101°
2026-05-04 21:06 51.47963 -3.62066 40729 ft 491 kts 97°
2026-05-04 21:06 51.47581 -3.56712 40057 ft 491 kts 96°
2026-05-04 21:07 51.47238 -3.51256 39347 ft 492 kts 96°
2026-05-04 21:07 51.46919 -3.45791 38662 ft 492 kts 96°
2026-05-04 21:07 51.46608 -3.40329 37808 ft 491 kts 95°
2026-05-04 21:07 51.46297 -3.34880 37062 ft 489 kts 96°
2026-05-04 21:08 51.45983 -3.29456 36415 ft 485 kts 96°
2026-05-04 21:08 51.45666 -3.24082 35766 ft 482 kts 96°
2026-05-04 21:08 51.45346 -3.18741 35109 ft 479 kts 96°
2026-05-04 21:08 51.45023 -3.13437 34388 ft 478 kts 96°
2026-05-04 21:09 51.44701 -3.08203 33571 ft 477 kts 97°
2026-05-04 21:09 51.44375 -3.02920 32804 ft 475 kts 97°
2026-05-04 21:09 51.44046 -2.97635 32031 ft 474 kts 97°
2026-05-04 21:09 51.43717 -2.92383 31249 ft 473 kts 98°
2026-05-04 21:10 51.43386 -2.87146 30442 ft 472 kts 98°
2026-05-04 21:10 51.43053 -2.81919 29562 ft 472 kts 99°
2026-05-04 21:10 51.42716 -2.76700 28749 ft 470 kts 99°
2026-05-04 21:10 51.42384 -2.71581 28188 ft 463 kts 99°
2026-05-04 21:11 51.42048 -2.66426 27591 ft 457 kts 99°
2026-05-04 21:11 51.41722 -2.61460 27017 ft 451 kts 99°
2026-05-04 21:11 51.41393 -2.56484 26438 ft 446 kts 98°
2026-05-04 21:11 51.41066 -2.51564 25866 ft 441 kts 98°
2026-05-04 21:12 51.40740 -2.46689 25296 ft 439 kts 98°
2026-05-04 21:12 51.40416 -2.41843 24762 ft 437 kts 98°
2026-05-04 21:12 51.40089 -2.37013 24205 ft 433 kts 98°
2026-05-04 21:12 51.39765 -2.32298 23658 ft 429 kts 98°
2026-05-04 21:13 51.39439 -2.27568 23030 ft 426 kts 98°
2026-05-04 21:13 51.39114 -2.22863 22463 ft 422 kts 98°
2026-05-04 21:13 51.38790 -2.18201 21909 ft 419 kts 98°
2026-05-04 21:13 51.38467 -2.13575 21354 ft 416 kts 98°
2026-05-04 21:14 51.38146 -2.08993 20801 ft 413 kts 97°
2026-05-04 21:14 51.37825 -2.04434 20245 ft 409 kts 97°
2026-05-04 21:14 51.37510 -1.99978 19695 ft 406 kts 97°
2026-05-04 21:14 51.37192 -1.95484 19151 ft 403 kts 97°
2026-05-04 21:15 51.36872 -1.91042 18580 ft 400 kts 97°
2026-05-04 21:15 51.36551 -1.86626 17990 ft 397 kts 97°
2026-05-04 21:15 51.36234 -1.82268 17412 ft 392 kts 97°
2026-05-04 21:15 51.35922 -1.78008 16838 ft 388 kts 97°
2026-05-04 21:16 51.35609 -1.73739 16297 ft 385 kts 97°
2026-05-04 21:16 51.35297 -1.69499 15731 ft 382 kts 97°
2026-05-04 21:16 51.34985 -1.65287 15172 ft 380 kts 97°
2026-05-04 21:16 51.34674 -1.61110 14612 ft 377 kts 97°
2026-05-04 21:17 51.34363 -1.56945 14041 ft 374 kts 97°
2026-05-04 21:17 51.34058 -1.52814 13764 ft 380 kts 97°
2026-05-04 21:17 51.33739 -1.48596 13644 ft 390 kts 97°
2026-05-04 21:17 51.33409 -1.44270 13253 ft 390 kts 97°
2026-05-04 21:18 51.33079 -1.39963 12952 ft 389 kts 97°
2026-05-04 21:18 51.32749 -1.35675 12681 ft 386 kts 97°
2026-05-04 21:18 51.32422 -1.31426 12406 ft 382 kts 97°
2026-05-04 21:18 51.32102 -1.27277 12140 ft 380 kts 97°
2026-05-04 21:19 51.31777 -1.23085 11886 ft 379 kts 97°
2026-05-04 21:19 51.31457 -1.18955 11699 ft 366 kts 97°
2026-05-04 21:19 51.31289 -1.14980 11472 ft 350 kts 92°
2026-05-04 21:19 51.31245 -1.11165 11240 ft 336 kts 91°
2026-05-04 21:20 51.31219 -1.07511 11011 ft 322 kts 91°
2026-05-04 21:20 51.31192 -1.03999 10788 ft 310 kts 91°
2026-05-04 21:20 51.31163 -1.00629 10565 ft 298 kts 91°
2026-05-04 21:20 51.31134 -0.97402 10352 ft 288 kts 91°
2026-05-04 21:21 51.31103 -0.94207 10152 ft 288 kts 91°
2026-05-04 21:21 51.31070 -0.90999 9928 ft 289 kts 91°
2026-05-04 21:21 51.31036 -0.87786 9688 ft 289 kts 91°
2026-05-04 21:21 51.31002 -0.84580 9481 ft 288 kts 91°
2026-05-04 21:22 51.30967 -0.81391 9283 ft 287 kts 91°
2026-05-04 21:22 51.30932 -0.78210 9082 ft 286 kts 91°
2026-05-04 21:22 51.30898 -0.75038 8894 ft 284 kts 91°
2026-05-04 21:22 51.30864 -0.71883 8697 ft 283 kts 91°
2026-05-04 21:23 51.30825 -0.68744 8504 ft 282 kts 91°
2026-05-04 21:23 51.30785 -0.65604 8300 ft 282 kts 91°
2026-05-04 21:23 51.30745 -0.62520 8118 ft 280 kts 91°
2026-05-04 21:23 51.30705 -0.59410 7920 ft 279 kts 91°
2026-05-04 21:24 51.30664 -0.56306 7739 ft 277 kts 91°
2026-05-04 21:24 51.30624 -0.53299 7578 ft 265 kts 91°
2026-05-04 21:24 51.30585 -0.50413 7404 ft 254 kts 91°
2026-05-04 21:24 51.30547 -0.47650 7222 ft 244 kts 91°
2026-05-04 21:25 51.30524 -0.44948 7072 ft 242 kts 88°
2026-05-04 21:25 51.30869 -0.42372 6955 ft 240 kts 63°
2026-05-04 21:25 51.31965 -0.40364 6950 ft 239 kts 32°
2026-05-04 21:25 51.33503 -0.39554 6972 ft 240 kts
2026-05-04 21:26 51.35119 -0.40111 6972 ft 239 kts 330°
2026-05-04 21:26 51.36328 -0.41892 6977 ft 238 kts 301°
2026-05-04 21:26 51.36819 -0.44404 6975 ft 239 kts 271°
2026-05-04 21:26 51.36652 -0.47041 6981 ft 238 kts 259°
2026-05-04 21:27 51.36331 -0.49650 6979 ft 240 kts 258°
2026-05-04 21:27 51.36003 -0.52270 6980 ft 240 kts 259°
2026-05-04 21:27 51.35686 -0.54892 6978 ft 240 kts 259°
2026-05-04 21:27 51.35376 -0.57510 6978 ft 240 kts 259°
2026-05-04 21:28 51.35073 -0.60107 6980 ft 240 kts 260°
2026-05-04 21:28 51.34771 -0.62727 6977 ft 239 kts 260°
2026-05-04 21:28 51.34684 -0.65376 6968 ft 239 kts 278°
2026-05-04 21:28 51.35087 -0.67954 6822 ft 238 kts 288°
2026-05-04 21:29 51.35622 -0.70465 6475 ft 238 kts 289°
2026-05-04 21:29 51.36197 -0.72945 6170 ft 237 kts 294°
2026-05-04 21:29 51.37143 -0.75047 6005 ft 237 kts 319°
2026-05-04 21:29 51.38561 -0.76352 5682 ft 235 kts 337°
2026-05-04 21:30 51.40098 -0.77286 5279 ft 236 kts 340°
2026-05-04 21:30 51.41665 -0.78058 4863 ft 234 kts 348°
2026-05-04 21:30 51.43249 -0.78169 4469 ft 222 kts
2026-05-04 21:30 51.44663 -0.77518 4291 ft 203 kts 24°
2026-05-04 21:31 51.46972 -0.75384 3635 ft 190 kts 53°
2026-05-04 21:31 51.47537 -0.73506 3270 ft 185 kts 69°
2026-05-04 21:31 51.47719 -0.71488 2977 ft 182 kts 90°
2026-05-04 21:32 51.47666 -0.69476 2738 ft 177 kts 90°
2026-05-04 21:32 51.47673 -0.67542 2477 ft 170 kts 87°
2026-05-04 21:32 51.47688 -0.65709 2232 ft 162 kts 88°
2026-05-04 21:32 51.47692 -0.63933 2038 ft 157 kts 88°
2026-05-04 21:33 51.47697 -0.62200 1825 ft 155 kts 87°
2026-05-04 21:33 51.47706 -0.60476 1607 ft 154 kts 87°
2026-05-04 21:33 51.47717 -0.58744 1394 ft 154 kts 87°
2026-05-04 21:33 51.47715 -0.57066 1131 ft 147 kts 88°
2026-05-04 21:34 51.47713 -0.55472 924 ft 139 kts 89°
2026-05-04 21:34 51.47730 -0.53948 714 ft 138 kts 85°
2026-05-04 21:34 51.47730 -0.52415 518 ft 138 kts 88°
2026-05-04 21:34 51.47742 -0.50870 336 ft 138 kts 87°
2026-05-04 21:35 51.47746 -0.49321 188 ft 140 kts 87°
2026-05-04 21:35 51.47753 -0.47781 100 ft 136 kts 87°
2026-05-04 21:35 51.47760 -0.46394 98 ft 109 kts 90°
2026-05-04 21:35 51.47763 -0.45376 92 ft 74 kts 89°
2026-05-04 21:36 51.47762 -0.44779 95 ft 35 kts 90°
2026-05-04 21:36 51.47713 -0.44435 95 ft 30 kts 113°
2026-05-04 21:36 51.47662 -0.44269 96 ft 10 kts 127°
2026-05-04 21:36 51.47630 -0.44234 96 ft 2 kts 162°
2026-05-04 21:37 51.47605 -0.44280 95 ft 13 kts 256°
2026-05-04 21:37 51.47604 -0.44452 93 ft 17 kts 267°
2026-05-04 21:37 51.47600 -0.44618 96 ft 0 kts 269°
2026-05-04 21:37 51.47599 -0.44630 92 ft 3 kts 269°
2026-05-04 21:38 51.47599 -0.44690 92 ft 8 kts 269°
2026-05-04 21:38 51.47598 -0.44798 92 ft 12 kts 269°
2026-05-04 21:38 51.47598 -0.44946 93 ft 13 kts 270°
2026-05-04 21:38 51.47598 -0.45115 94 ft 17 kts 270°
2026-05-04 21:39 51.47597 -0.45323 92 ft 20 kts 270°
2026-05-04 21:39 51.47597 -0.45542 92 ft 19 kts 270°
2026-05-04 21:39 51.47596 -0.45750 95 ft 18 kts 270°
2026-05-04 21:39 51.47595 -0.45938 96 ft 16 kts 269°
2026-05-04 21:40 51.47594 -0.46108 96 ft 14 kts 269°
2026-05-04 21:40 51.47593 -0.46259 95 ft 13 kts 270°
2026-05-04 21:40 51.47593 -0.46394 95 ft 11 kts 270°
2026-05-04 21:40 51.47592 -0.46512 96 ft 10 kts 270°
2026-05-04 21:41 51.47592 -0.46614 92 ft 9 kts 270°
2026-05-04 21:41 51.47592 -0.46703 92 ft 7 kts 270°
2026-05-04 21:41 51.47591 -0.46778 92 ft 6 kts 270°
2026-05-04 21:41 51.47585 -0.46884 95 ft 14 kts 268°
2026-05-04 21:42 51.47581 -0.47081 96 ft 19 kts 269°
2026-05-04 21:42 51.47581 -0.47246 95 ft 13 kts 270°
2026-05-04 21:42 51.47551 -0.47348 94 ft 10 kts 198°
2026-05-04 21:42 51.47489 -0.47355 94 ft 8 kts 182°
2026-05-04 21:43 51.47425 -0.47355 94 ft 10 kts 180°
2026-05-04 21:43 51.47347 -0.47353 95 ft 12 kts 179°
2026-05-04 21:43 51.47256 -0.47353 92 ft 14 kts 180°
2026-05-04 21:43 51.47165 -0.47353 93 ft 12 kts 180°
2026-05-04 21:44 51.47084 -0.47352 95 ft 11 kts 180°
2026-05-04 21:44 51.47011 -0.47352 92 ft 10 kts 180°
2026-05-04 21:44 51.46947 -0.47351 92 ft 9 kts 179°
2026-05-04 21:44 51.46897 -0.47350 92 ft 7 kts 179°
2026-05-04 21:45 51.46864 -0.47356 92 ft 3 kts 203°
2026-05-04 21:45 51.46854 -0.47381 95 ft 3 kts 248°
2026-05-04 21:45 51.46850 -0.47431 96 ft 4 kts 267°
2026-05-04 21:45 51.46849 -0.47468 93 ft 2 kts 269°
2026-05-04 21:46 51.46849 -0.47489 96 ft 1 kts 269°
2026-05-04 21:46 51.46849 -0.47490 96 ft 0 kts 269°